Location: Albany
(35.0170°S, 117.8920°E)
Time: 11:38:08
(UTC+08:00)

S-56A Canister/Altair - Pass Details

Date: 27 January 2021
Orbit: 631 x 2501 km, 38.9° (Epoch: 02 March)

Event Time Altitude Azimuth Distance (km) Brightness Sun altitude
Rises 20:28:35 0° 250° (WSW) 6,098 13.8 -13.3°
Reaches altitude 10° 20:33:35 10° 259° (W) 4,925 12.7 -14.1°
Maximum altitude 20:44:03 28° 310° (NW) 3,161 10.7 -15.9°
Drops below altitude 10° 20:52:12 10° 3° (N) 3,743 10.6 -17.2°
Enters shadow 20:52:58 - 7° (N) 3,893 10.7 -17.3°
Sets 20:55:26 0° 15° (NNE) 4,443 - -17.7°
